Погода в Андреевке

Украина / Харьковская область     49°13′42″N   35°39′02″E
темп.,
°C
ветер,
м/с
пор.,
м/с
влажн.,
%
обл.,
%
осадки,
мм/ч
давл.,
гПа
погр.,
м
22 января, пт
пт2223:00−1ююз61097100 0.0 1023387
02:000ююз41095100 0.0 1022411
05:000ююз5109799 0.0 1021357
08:00+1ююз6109799 0.0 1021356
11:00+3юз613100100 0.0 1021416
14:00+2ююз612100100 0.0 1020396
17:00+2ююз51298100 0.0 1019334
20:00+2ю51299100 0.0 1019364
23 января, сб
сб2323:00+2ююз61498100 0.0 1019388
02:00+2ю51299100 0.0 1018305
05:00+2ю51199100 0.0 1018299
08:00+2ю51295100 0.0 1018334
11:00+3ю51197100 0.0 1018358
14:00+4ю61196100 0.0 1017367
17:00+3ю61294100 0.0 1016335
20:00+3ю5139388 0.0 1016315
24 января, вс
вс2423:00+3ю61393100 0.0 1016324
02:00+4ю61392100 0.0 1016359
05:00+2ююв61392100 0.0 1015294
08:00+3ююв6149099 0.0 1016289
11:00+4ююв71482100 0.0 1015431
14:00+4ююв71572100 0.0 1013465
17:00+2ююв61574100 0.0 1013440
20:00+2ююв61479100 0.1 1013430
25 января, пн
пн2523:00+2ююв71493100 1.4 1012384
02:00+3ююв61496100 2.2 1012376
05:00+4ююв61395100 0.0 1011412
08:00+4ююв61397100 0.2 1012413
11:00+6ююв61189100 0.1 1012431
14:00+6ююв61386100 0.3 1010513
17:00+5юв61288100 0.2 1010342
20:00+5юв81978100 0.3 1008572
26 января, вт
вт2623:00+5юв102070100 0.4 1006825
02:00+5ююв101981100 1.4 1004794
05:00+7ю91787100 1.4 1003836
08:00+5ююв71590100 1.4 1003680
11:00+6ю61292100 0.9 1002840
14:00+5ююз101564100 3.5 10021582
17:00+2юз9166796 0.1 10051455
20:000юз9166862 0.1 10081107